DLH24K EDDF-EDDL

Flight info

Callsign DLH24K
Flight time N/A
Altitude 22000
Route MARUN3W MARUN Y152 ARPEG Z850 ADEMI T854 DOMUX DOMUX1A
Aircraft A20N/M-SDE2E3FGHIRWXY/LB1

Departure

Time 2026-04-14 05:08
Airport Frankfurt Main Airport (EDDF)

Arrival

Time N/A
Airport Düsseldorf Airport (EDDL)
Time Latitude Longitude Altitude Speed Heading
2026-04-14 04:49 50.04704 8.56848 354 ft 0 kts 294°
2026-04-14 04:53 50.04702 8.56855 361 ft 1 kts 294°
2026-04-14 04:53 50.04694 8.56883 359 ft 3 kts 294°
2026-04-14 04:53 50.04688 8.56916 354 ft 3 kts 271°
2026-04-14 04:53 50.04690 8.56949 353 ft 3 kts 244°
2026-04-14 04:54 50.04701 8.56969 358 ft 0 kts 199°
2026-04-14 05:00 50.04699 8.56968 353 ft 1 kts 199°
2026-04-14 05:00 50.04677 8.56955 356 ft 6 kts 203°
2026-04-14 05:00 50.04624 8.56920 354 ft 10 kts 198°
2026-04-14 05:01 50.04542 8.56887 348 ft 12 kts 194°
2026-04-14 05:01 50.04483 8.56947 348 ft 12 kts 91°
2026-04-14 05:01 50.04514 8.57085 352 ft 15 kts 69°
2026-04-14 05:01 50.04556 8.57259 346 ft 19 kts 70°
2026-04-14 05:02 50.04604 8.57460 353 ft 21 kts 69°
2026-04-14 05:02 50.04657 8.57684 352 ft 23 kts 70°
2026-04-14 05:02 50.04706 8.57892 351 ft 14 kts 72°
2026-04-14 05:02 50.04645 8.57996 348 ft 17 kts 160°
2026-04-14 05:03 50.04572 8.58139 333 ft 21 kts 74°
2026-04-14 05:03 50.04628 8.58367 335 ft 24 kts 69°
2026-04-14 05:03 50.04690 8.58623 326 ft 21 kts 69°
2026-04-14 05:03 50.04701 8.58694 325 ft 7 kts 95°
2026-04-14 05:04 50.04682 8.58745 325 ft 0 kts 144°
2026-04-14 05:06 50.04678 8.58748 325 ft 3 kts 149°
2026-04-14 05:06 50.04637 8.58758 325 ft 9 kts 184°
2026-04-14 05:06 50.04573 8.58702 324 ft 12 kts 221°
2026-04-14 05:06 50.04509 8.58617 326 ft 10 kts 220°
2026-04-14 05:07 50.04473 8.58527 327 ft 11 kts 247°
2026-04-14 05:07 50.04439 8.58398 326 ft 16 kts 249°
2026-04-14 05:07 50.04327 8.57911 334 ft 81 kts 249°
2026-04-14 05:07 50.04166 8.57243 352 ft 116 kts 250°
2026-04-14 05:08 50.03715 8.55338 665 ft 147 kts 250°
2026-04-14 05:08 50.03349 8.53843 1284 ft 149 kts 250°
2026-04-14 05:08 50.03087 8.52830 1622 ft 155 kts 251°
2026-04-14 05:08 50.02489 8.50699 2198 ft 175 kts 246°
2026-04-14 05:09 50.01753 8.49034 2500 ft 201 kts 230°
2026-04-14 05:09 50.00552 8.47674 2855 ft 226 kts 205°
2026-04-14 05:09 49.99039 8.46990 3826 ft 223 kts 191°
2026-04-14 05:09 49.97525 8.46674 5001 ft 219 kts 185°
2026-04-14 05:10 49.96000 8.46566 6013 ft 220 kts 185°
2026-04-14 05:10 49.94430 8.46327 6720 ft 237 kts 189°
2026-04-14 05:10 49.92740 8.45827 7294 ft 257 kts 198°
2026-04-14 05:10 49.91149 8.44581 8144 ft 259 kts 222°
2026-04-14 05:11 49.90356 8.43201 8763 ft 260 kts 239°
2026-04-14 05:11 49.89776 8.40569 9801 ft 261 kts 265°
2026-04-14 05:11 49.90069 8.37806 10788 ft 264 kts 292°
2026-04-14 05:11 49.91166 8.35497 11684 ft 273 kts 317°
2026-04-14 05:12 49.92839 8.34025 12552 ft 282 kts 337°
2026-04-14 05:12 49.94796 8.33209 13042 ft 305 kts 346°
2026-04-14 05:12 49.96940 8.32453 13379 ft 327 kts 342°
2026-04-14 05:12 49.99181 8.31316 13642 ft 350 kts 338°
2026-04-14 05:13 50.01497 8.29899 14184 ft 361 kts 335°
2026-04-14 05:13 50.03915 8.28760 14954 ft 368 kts 350°
2026-04-14 05:13 50.06487 8.28781 15691 ft 375 kts
2026-04-14 05:13 50.09012 8.29920 16433 ft 380 kts 18°
2026-04-14 05:14 50.11532 8.31253 17160 ft 385 kts 18°
2026-04-14 05:14 50.14086 8.32604 17863 ft 391 kts 18°
2026-04-14 05:14 50.16673 8.33968 18570 ft 395 kts 18°
2026-04-14 05:14 50.19285 8.35343 19225 ft 398 kts 18°
2026-04-14 05:15 50.21920 8.36729 19874 ft 401 kts 18°
2026-04-14 05:15 50.24581 8.38130 20519 ft 405 kts 18°
2026-04-14 05:15 50.27262 8.39542 21154 ft 409 kts 18°
2026-04-14 05:15 50.29971 8.40970 21779 ft 413 kts 18°
2026-04-14 05:16 50.32700 8.42439 22036 ft 416 kts 18°
2026-04-14 05:16 50.35430 8.43933 22098 ft 417 kts 19°
2026-04-14 05:16 50.38174 8.45440 22095 ft 418 kts 19°
2026-04-14 05:16 50.40919 8.46947 22092 ft 417 kts 19°
2026-04-14 05:17 50.43662 8.48451 22090 ft 417 kts 18°
2026-04-14 05:17 50.46404 8.49954 22092 ft 417 kts 18°
2026-04-14 05:17 50.49152 8.51430 22089 ft 417 kts 17°
2026-04-14 05:17 50.51926 8.52771 22089 ft 417 kts 15°
2026-04-14 05:18 50.54706 8.54061 22092 ft 417 kts 15°
2026-04-14 05:18 50.57491 8.55358 22093 ft 418 kts 15°
2026-04-14 05:18 50.60285 8.56674 22089 ft 420 kts 16°
2026-04-14 05:18 50.63079 8.58006 22089 ft 419 kts 16°
2026-04-14 05:19 50.65831 8.59326 22086 ft 419 kts 16°
2026-04-14 05:19 50.68654 8.60684 22088 ft 419 kts 16°
2026-04-14 05:19 50.71409 8.62013 22089 ft 419 kts 16°
2026-04-14 05:19 50.74192 8.63357 22081 ft 419 kts 16°
2026-04-14 05:20 50.76994 8.64648 22077 ft 418 kts 11°
2026-04-14 05:20 50.79878 8.65017 22081 ft 415 kts 354°
2026-04-14 05:20 50.82690 8.64144 22084 ft 411 kts 338°
2026-04-14 05:20 50.85216 8.62108 22084 ft 406 kts 321°
2026-04-14 05:21 50.87263 8.59097 22084 ft 400 kts 307°
2026-04-14 05:21 50.88947 8.55602 22085 ft 399 kts 302°
2026-04-14 05:21 50.90572 8.52047 22084 ft 399 kts 303°
2026-04-14 05:21 50.92253 8.48544 22097 ft 400 kts 304°
2026-04-14 05:22 50.93995 8.45099 22093 ft 401 kts 306°
2026-04-14 05:22 50.95775 8.41691 22089 ft 401 kts 306°
2026-04-14 05:22 50.97573 8.38299 22089 ft 401 kts 306°
2026-04-14 05:22 50.99378 8.34914 22090 ft 402 kts 307°
2026-04-14 05:23 51.01344 8.31747 22094 ft 405 kts 315°
2026-04-14 05:23 51.03560 8.29045 22091 ft 409 kts 323°
2026-04-14 05:23 51.06002 8.26758 21731 ft 413 kts 328°
2026-04-14 05:23 51.08522 8.24541 21085 ft 415 kts 327°
2026-04-14 05:24 51.11052 8.22293 20270 ft 419 kts 327°
2026-04-14 05:24 51.13582 8.20041 19729 ft 413 kts 327°
2026-04-14 05:24 51.16082 8.17814 19165 ft 409 kts 327°
2026-04-14 05:24 51.18550 8.15612 18559 ft 405 kts 327°
2026-04-14 05:25 51.20988 8.13432 17993 ft 399 kts 327°
2026-04-14 05:25 51.23393 8.11280 17463 ft 393 kts 327°
2026-04-14 05:25 51.25762 8.09156 16886 ft 388 kts 327°
2026-04-14 05:25 51.28098 8.07060 16343 ft 383 kts 327°
2026-04-14 05:26 51.30407 8.04986 15808 ft 378 kts 327°
2026-04-14 05:26 51.32687 8.02936 15275 ft 375 kts 327°
2026-04-14 05:26 51.34947 8.00900 14757 ft 371 kts 326°
2026-04-14 05:26 51.37186 7.98880 14242 ft 368 kts 326°
2026-04-14 05:27 51.39403 7.96878 13720 ft 365 kts 326°
2026-04-14 05:27 51.41604 7.94887 13201 ft 360 kts 327°
2026-04-14 05:27 51.43768 7.92933 12705 ft 355 kts 327°
2026-04-14 05:27 51.45688 7.90586 12225 ft 343 kts 308°
2026-04-14 05:28 51.46894 7.87395 11755 ft 330 kts 286°
2026-04-14 05:28 51.47236 7.83837 11306 ft 320 kts 265°
2026-04-14 05:28 51.46798 7.80386 10867 ft 314 kts 252°
2026-04-14 05:28 51.46179 7.77062 10488 ft 309 kts 253°
2026-04-14 05:29 51.45596 7.73858 10357 ft 296 kts 253°
2026-04-14 05:29 51.45032 7.70727 10205 ft 283 kts 253°
2026-04-14 05:29 51.44492 7.67731 9897 ft 279 kts 255°
2026-04-14 05:29 51.43962 7.64785 9735 ft 273 kts 255°
2026-04-14 05:30 51.43436 7.61858 9590 ft 277 kts 255°
2026-04-14 05:30 51.42896 7.58855 9271 ft 278 kts 255°
2026-04-14 05:30 51.42360 7.55891 8928 ft 275 kts 255°
2026-04-14 05:30 51.41936 7.52933 8597 ft 270 kts 264°
2026-04-14 05:31 51.41810 7.49962 8283 ft 265 kts 269°
2026-04-14 05:31 51.41717 7.47077 7950 ft 261 kts 269°
2026-04-14 05:31 51.41610 7.44154 7628 ft 257 kts 269°
2026-04-14 05:31 51.41502 7.41346 7306 ft 255 kts 269°
2026-04-14 05:32 51.41393 7.38495 6967 ft 252 kts 270°
2026-04-14 05:32 51.41290 7.35705 6662 ft 250 kts 270°
2026-04-14 05:32 51.41187 7.32939 6329 ft 247 kts 270°
2026-04-14 05:32 51.41083 7.30251 6034 ft 245 kts 270°
2026-04-14 05:33 51.40975 7.27491 5680 ft 245 kts 270°
2026-04-14 05:33 51.40869 7.24775 5333 ft 244 kts 270°
2026-04-14 05:33 51.40767 7.22093 4996 ft 244 kts 270°
2026-04-14 05:34 51.40558 7.16629 4276 ft 243 kts 269°
2026-04-14 05:34 51.40453 7.13987 4168 ft 232 kts 269°
2026-04-14 05:34 51.40352 7.11461 3983 ft 226 kts 269°
2026-04-14 05:34 51.40250 7.08953 3721 ft 224 kts 269°
2026-04-14 05:35 51.40151 7.06468 3430 ft 223 kts 268°
2026-04-14 05:35 51.40050 7.04031 3304 ft 213 kts 268°
2026-04-14 05:35 51.39950 7.01743 3101 ft 202 kts 265°
2026-04-14 05:35 51.39527 6.99630 3040 ft 205 kts 241°
2026-04-14 05:36 51.38649 6.98113 4297 ft 185 kts 224°
2026-04-14 05:36 51.37754 6.96420 4440 ft 206 kts 240°
2026-04-14 05:36 51.37018 6.94512 4107 ft 199 kts 240°
2026-04-14 05:36 51.36260 6.92718 3702 ft 194 kts 237°
2026-04-14 05:37 51.35472 6.91010 3323 ft 181 kts 236°
2026-04-14 05:37 51.34731 6.89439 2671 ft 179 kts 236°
2026-04-14 05:37 51.33921 6.87693 1618 ft 198 kts 236°
2026-04-14 05:37 51.33157 6.86056 1394 ft 173 kts 233°
2026-04-14 05:38 51.32459 6.84660 1181 ft 150 kts 235°
2026-04-14 05:38 51.31870 6.83411 972 ft 134 kts 234°
2026-04-14 05:38 51.31319 6.82252 803 ft 131 kts 233°
2026-04-14 05:38 51.30771 6.81098 632 ft 129 kts 232°
2026-04-14 05:39 51.30226 6.79952 454 ft 130 kts 232°
2026-04-14 05:39 51.29689 6.78823 284 ft 129 kts 232°
2026-04-14 05:39 51.29145 6.77683 135 ft 127 kts 231°
2026-04-14 05:39 51.28747 6.76854 127 ft 50 kts 233°